STARLINK-3109 (49143 NORAD) Tracking and Keplerian Element Data

This shows tracking and keplerian element data for the satellite.

Feedback or suggestion? Click here.




ElementValue
Catalog49143
NameSTARLINK-3109
Epoch Orbit367
Epoch Day300.58334491
Epoch Year2021
RAAN4.7209
Inclination70.0017
Eccentricity0.0003994
Argument of Perigee292.4758
Mean Anonmoly69.784
Mean Motion15.69719513
Decay Rate0.00055032
L11 49143U 21082P 21300.58334491 .00055032 00000-0 46026-3 0 9993
L22 49143 70.0017 4.7209 0003994 292.4758 69.7840 15.69719513 3679

Live tracking and technical data element details for STARLINK-3109 (NORAD 49143). STARLINK-3109 can be tracked NOW for your location showing map with azimuth and elevation plus other details from your city location.

Track the satellite on the map from your city or location and see movement details for azimuth, elevation, latitude, longitude, range, height, and movement on the map or in text.







IsCatalogInMostPopularTable: catalog: 49143, numindb: 5
Update: records affected: 1



GetName: 49143 STARLINK-3109

Hit Count: updated at: Thu, 28 Oct 2021 11:46:04 GMT